Wind_Speed
17 17 17 16 15 18 17 16 16 17 17 16 15 14 14 16 15 16 20 17 22 22 50 37 35 29 23 21 13 8 8 10 7 7 10 11 12 10 8 7 9 11 10 6 7 6 8 5 4 3 10 19 14 12
20 18 17 17 18 19 20 18 19 20 19 19 18 17 15 17 17 19 24 20 22 30 39 33 39 42 47 42 31 17 11 6 15 7 10 8 10 4 11 6 8 7 5 5 9 6 4 7 3 9 10 13 11 8
22 23 21 19 20 20 20 19 20 21 20 19 19 21 17 19 20 21 25 24 24 29 39 42 37 44 40 49 37 19 11 13 9 18 9 6 7 7 6 7 7 7 7 3 2 5 9 10 6 6 9 9 7 6
22 23 23 22 21 21 20 20 21 21 22 23 22 24 24 22 22 23 28 29 24 18 10 12 23 26 35 39 34 40 26 21 22 14 14 5 5 6 3 1 7 2 12 8 5 10 11 5 7 4 12 7 5 6
24 24 24 26 24 23 22 21 21 21 22 23 23 26 28 26 25 27 34 41 36 30 7 7 17 30 30 35 34 35 27 24 10 5 6 7 2 3 1 1 4 9 6 6 3 5 1 5 4 10 9 6 4 5
23 24 25 25 26 26 24 25 23 23 24 24 25 26 28 27 24 26 16 4 11 36 12 5 8 14 29 34 32 30 28 15 13 10 9 4 5 3 3 3 4 14 8 9 2 4 4 4 8 5 4 6 5 4
21 22 22 24 25 25 26 26 26 24 25 26 27 26 28 28 25 24 15 13 14 23 9 4 3 6 18 21 18 18 22 8 11 11 7 4 4 3 2 4 1 5 9 8 10 8 6 5 2 8 10 7 5 5
21 21 22 24 24 26 26 26 23 25 25 25 29 28 30 32 34 41 42 35 24 27 13 3 2 4 17 7 6 11 9 10 5 3 3 3 3 2 4 8 14 7 7 8 9 10 10 9 10 9 10 8 7 5
20 22 25 27 32 31 29 28 27 27 26 24 26 27 33 25 12 13 12 18 23 21 4 5 7 4 13 5 6 6 6 3 3 3 3 5 4 5 7 11 10 11 7 6 8 11 11 12 12 13 13 13 11 9
18 19 19 25 25 26 30 29 26 24 21 21 21 11 7 7 13 21 14 6 13 14 9 3 6 4 10 5 3 5 3 3 3 3 6 4 6 17 11 10 8 10 12 11 8 7 7 9 9 10 10 10 12 11
17 21 22 23 21 20 20 23 21 18 15 14 7 7 17 19 22 6 6 6 9 4 10 5 6 5 5 3 3 1 3 4 4 4 5 4 4 8 14 20 17 14 12 12 12 13 14 15 15 15 14 13 11 11
19 20 22 22 19 17 16 17 18 17 14 9 10 20 19 6 7 6 4 4 5 4 6 8 8 7 7 5 3 3 2 2 4 8 5 4 3 7 7 8 9 10 12 12 13 12 12 12 11 12 12 12 12 11
17 19 20 17 14 16 15 16 18 17 13 12 6 5 6 6 6 5 5 4 3 4 7 10 6 7 6 4 3 3 5 3 10 4 4 4 6 6 4 4 6 7 7 7 6 6 8 8 8 6 5 6 8 9
16 18 15 11 10 8 5 11 14 14 9 5 6 6 5 5 5 1 3 5 6 1 15 18 6 3 5 3 2 4 3 4 5 6 5 3 7 4 3 4 5 4 3 3 2 2 3 4 5 5 4 4 5 7
16 16 15 9 8 0 3 6 11 12 6 5 7 4 5 4 5 8 12 8 8 10 20 9 5 4 2 4 2 4 4 5 5 4 2 6 6 6 5 5 5 5 5 4 3 3 2 2 1 2 3 3 4 6
16 16 11 8 8 2 2 4 7 8 3 5 7 5 4 6 3 8 10 11 8 13 13 3 2 4 3 4 5 5 6 6 3 3 9 10 9 9 8 7 6 7 7 7 6 6 7 7 6 6 6 5 5 6
16 16 7 7 4 5 7 6 5 6 6 5 3 6 6 10 9 8 11 9 8 8 3 2 5 2 3 3 5 2 1 2 12 14 13 12 12 12 12 12 11 11 11 11 11 11 11 11 10 9 8 9 8 8
10 7 6 8 7 7 6 6 4 5 5 4 4 5 7 9 10 9 10 10 6 2 1 1 3 3 3 6 3 4 7 16 16 19 20 18 16 17 17 17 16 16 16 16 16 15 14 13 12 13 12 11 10 10
7 6 5 5 6 5 3 3 4 3 4 3 6 6 6 7 7 12 12 10 5 2 5 3 2 2 2 1 7 18 21 20 21 20 19 17 16 16 17 18 19 18 17 15 15 17 17 16 15 13 12 11 11 11
6 4 4 4 4 4 3 3 3 3 2 3 4 5 4 4 7 8 13 10 5 4 5 4 2 3 2 15 19 21 21 23 27 21 15 18 15 12 11 13 13 13 12 13 14 13 13 13 13 13 12 11 10 11
5 5 4 4 3 3 2 1 2 2 4 3 7 4 3 5 8 12 13 12 7 5 3 7 8 11 18 21 22 24 24 23 18 14 15 16 13 10 10 11 11 10 10 10 10 10 9 10 10 10 9 9 9 9
3 3 3 2 2 2 1 2 2 5 3 4 4 5 4 4 6 8 9 10 5 8 7 9 14 19 28 27 23 19 17 19 19 16 14 15 14 13 12 12 11 12 11 11 10 10 10 10 9 9 9 9 9 9
2 2 2 1 2 1 1 3 1 5 2 3 3 2 3 4 9 6 5 7 6 12 13 18 23 23 23 21 19 17 16 16 16 14 13 13 12 10 10 10 9 9 9 9 10 9 9 9 9 9 10 10 10 11
2 1 2 3 5 0 1 3 3 3 3 3 2 2 3 6 11 6 3 5 10 12 14 17 19 20 19 16 16 14 13 12 12 12 10 8 8 7 7 8 8 7 7 8 9 9 10 11 11 11 12 12 12 13
1 6 4 4 5 3 4 3 4 2 2 3 2 3 2 5 3 3 3 4 11 13 16 16 15 15 14 11 9 8 7 8 7 7 7 7 7 7 7 8 8 7 7 8 9 10 12 13 14 13 13 14 14 13
5 5 4 4 4 2 2 2 3 4 3 2 3 2 3 1 3 3 2 4 6 9 12 13 13 10 10 8 6 6 6 6 6 5 6 7 7 7 9 10 10 11 11 12 13 15 16 15 16 12 11 10 10 9
3 3 3 4 1 1 3 3 2 2 4 4 2 3 2 4 3 2 2 6 5 7 8 9 9 8 6 5 5 5 6 6 5 6 8 9 9 10 13 14 16 19 19 19 18 16 14 13 12 12 12 12 12 11
3 3 2 5 3 4 3 2 3 3 2 3 2 4 3 3 2 2 3 7 8 7 7 6 6 6 6 6 7 7 7 8 9 10 12 13 16 18 20 23 23 20 18 16 15 16 16 15 13 13 12 12 11 11
3 4 2 4 3 5 5 3 2 3 4 4 1 2 3 3 3 4 5 7 8 8 7 7 7 7 7 7 7 7 7 8 10 13 16 21 21 21 20 19 18 18 19 19 17 15 14 12 11 12 12 12 12 13
3 5 2 3 3 3 3 4 3 5 7 6 5 6 6 6 6 6 5 5 5 5 5 5 5 4 4 3 2 3 4 7 11 13 19 20 20 20 20 20 20 19 17 15 14 13 13 12 12 12 13 14 14 15
3 2 2 3 3 2 2 3 5 5 4 5 6 6 6 5 4 4 3 2 2 1 2 2 2 2 3 3 3 4 7 12 16 18 16 17 19 20 21 19 17 16 15 13 12 11 11 11 11 12 13 14 15 16
4 4 2 2 2 3 3 2 2 2 2 2 3 3 3 3 2 2 3 2 0 1 1 2 2 2 4 5 5 6 11 18 18 16 18 19 20 19 18 16 14 12 10 9 9 10 10 11 11 12 13 14 16 18
2 3 3 2 2 2 4 2 3 2 3 3 3 2 2 2 2 1 2 2 1 2 3 4 5 6 7 9 12 17 18 18 18 17 18 19 17 16 14 11 9 7 6 6 8 9 11 12 13 13 14 16 18 20
Wind_Direction
266 271 270 269 269 277 276 277 278 283 288 290 292 290 282 286 291 286 281 263 253 259 270 264 256 254 254 229 217 194 199 192 173 212 220 221 234 217 236 172 170 176 171 189 198 219 265 173 141 256 334 312 312 319
267 265 267 269 272 269 267 271 274 275 277 283 286 284 288 285 289 287 285 276 269 259 263 270 263 258 238 237 234 226 224 199 204 197 220 210 236 218 229 221 190 210 221 187 200 215 131 171 272 296 313 311 314 306
272 267 265 264 265 265 269 269 273 272 272 277 279 285 277 283 284 284 288 285 275 277 284 260 250 264 247 232 225 201 215 206 236 234 270 210 241 192 202 227 189 224 205 238 176 211 236 263 242 274 318 320 291 305
267 270 267 263 265 267 270 268 270 274 276 275 278 281 280 278 285 290 286 285 267 269 270 268 248 239 220 219 221 229 233 214 227 263 259 215 232 202 225 7 224 99 156 206 251 278 260 287 200 276 318 324 298 300
271 272 274 267 259 260 265 268 271 274 278 279 276 279 284 287 290 290 289 284 265 230 286 294 240 220 217 219 220 216 217 212 193 218 241 226 143 183 156 259 228 189 180 191 226 142 76 118 168 302 311 313 288 286
271 267 267 268 266 260 260 264 268 274 280 282 282 281 285 289 295 301 308 359 336 232 233 230 224 219 209 207 209 207 218 216 201 212 228 193 208 226 211 229 253 207 222 233 267 187 189 261 299 295 317 311 312 277
274 274 274 269 267 266 263 266 267 273 277 280 283 281 285 290 286 270 244 254 301 312 269 243 200 189 188 181 183 192 200 195 220 215 211 168 180 207 231 232 195 216 224 221 232 234 274 251 253 284 294 292 302 282
279 279 279 278 277 270 266 264 266 273 277 277 281 284 288 290 284 275 274 283 282 267 241 241 116 159 169 155 143 159 176 196 228 190 149 180 156 200 249 236 248 225 214 216 223 228 231 262 275 280 291 288 275 264
284 279 276 280 274 259 262 264 265 268 272 276 284 292 295 286 258 253 265 249 272 216 247 197 172 170 171 147 136 142 169 178 202 192 194 176 186 219 229 234 232 211 216 220 229 244 251 263 277 286 281 266 262 258
292 313 301 299 297 266 251 255 258 263 268 276 285 286 257 231 254 287 293 215 206 202 227 227 123 149 171 148 122 124 206 143 176 187 141 218 244 233 237 241 218 215 218 228 242 259 256 260 268 271 278 271 252 246
303 301 304 304 296 292 260 249 251 253 260 269 248 243 260 281 301 245 252 217 195 201 188 175 153 139 162 152 131 201 163 164 182 173 198 218 252 223 212 221 232 227 228 239 250 261 270 274 278 278 271 257 256 246
301 303 310 305 289 279 261 246 233 233 236 242 277 286 288 248 234 242 226 237 215 195 148 157 147 135 121 131 126 210 132 174 191 141 189 236 222 146 173 196 220 226 231 240 254 262 267 272 276 280 273 250 245 250
300 304 310 309 303 289 254 236 226 232 246 270 265 245 216 217 236 224 231 220 186 155 161 158 134 133 131 142 114 165 167 157 123 178 226 243 143 151 166 189 199 209 217 227 238 259 268 268 268 274 262 238 243 237
301 308 310 317 323 315 244 219 213 212 213 223 239 235 222 210 231 278 323 310 341 194 155 146 125 126 140 143 138 147 96 150 207 211 223 151 160 143 158 177 173 181 187 189 191 249 265 259 247 244 247 242 225 203
301 306 311 301 338 80 194 193 191 195 196 240 250 243 236 332 298 276 287 283 276 190 159 141 99 142 142 130 147 121 161 217 222 220 99 130 135 131 130 134 136 146 144 132 128 102 75 77 146 193 187 175 172 178
287 298 302 293 269 201 230 228 219 209 226 238 249 269 299 285 309 338 318 294 262 175 155 140 156 171 148 140 167 189 182 211 161 105 121 125 119 118 114 115 123 127 122 119 113 103 95 90 89 97 109 123 135 146
267 260 263 287 316 301 287 234 194 205 231 243 256 296 296 287 286 304 313 298 319 192 183 179 185 118 119 167 169 187 227 89 123 114 108 111 119 122 121 109 111 112 111 109 105 101 98 94 91 90 97 100 109 120
230 234 249 254 272 286 243 208 226 230 245 265 282 310 308 280 302 308 306 309 320 240 198 44 110 176 177 172 182 136 118 115 115 113 110 106 104 110 114 101 100 100 102 101 95 92 93 94 93 88 90 94 103 108
221 236 249 251 270 236 228 228 227 263 247 265 282 295 289 289 293 314 315 304 259 167 92 32 62 99 93 46 124 132 131 128 118 107 110 113 105 96 94 100 98 94 92 90 95 84 80 78 78 80 84 90 96 98
212 226 243 279 278 220 225 225 243 266 283 307 309 308 317 333 325 350 24 47 70 65 55 31 14 1 355 118 128 127 127 128 121 113 110 109 112 108 98 101 98 91 87 86 82 72 67 69 71 72 71 73 77 82
226 238 261 291 235 192 218 251 247 276 308 319 335 345 324 352 12 15 14 17 46 34 59 19 58 87 109 105 117 120 128 128 124 124 122 121 122 124 111 101 99 100 99 92 86 81 78 73 68 67 71 77 80 84
231 236 272 256 218 152 197 351 292 321 328 314 337 8 25 15 359 12 4 23 60 22 27 43 86 103 115 116 122 127 125 124 120 122 122 121 117 114 108 101 101 94 87 80 76 72 67 64 62 61 63 68 69 72
212 273 251 311 169 140 272 1 8 3 342 355 354 31 29 6 356 19 65 36 51 49 80 90 102 107 105 109 114 115 120 131 131 128 125 125 122 118 112 106 99 94 87 84 80 77 75 73 71 71 73 74 73 76
292 305 11 38 28 90 350 36 30 7 20 8 22 48 18 352 358 65 54 39 23 77 89 90 94 97 99 102 99 99 102 107 114 120 126 133 131 125 119 112 105 97 91 89 82 80 82 87 87 88 89 90 88 84
320 8 13 0 25 34 27 12 357 18 50 355 11 63 24 356 51 62 40 27 24 61 79 84 84 86 88 89 83 80 90 103 98 106 118 125 121 119 116 107 98 100 101 98 98 98 99 99 98 96 97 91 87 81
66 5 31 7 356 37 9 26 22 19 9 31 29 347 5 65 66 61 49 358 24 56 75 83 82 72 73 77 72 74 93 105 109 105 110 114 120 128 126 119 115 110 112 112 114 115 110 106 99 97 87 78 67 53
81 357 26 36 25 84 96 61 47 32 33 21 6 11 20 61 69 72 50 31 40 61 90 92 88 85 86 90 75 89 106 107 108 103 107 107 108 118 124 123 121 118 116 114 113 109 108 105 100 93 82 71 60 48
65 36 55 347 46 48 109 65 44 37 22 351 330 33 61 33 69 41 60 46 60 75 88 85 76 74 74 76 80 92 95 91 98 110 113 114 113 118 121 122 121 119 118 114 110 107 102 95 85 76 64 54 43 33
47 8 3 24 50 51 45 48 65 46 358 360 53 75 88 78 91 101 76 76 77 78 76 78 86 87 86 88 88 93 106 114 128 134 135 128 127 124 123 121 118 118 115 112 106 99 89 78 68 59 48 38 28 21
26 15 50 39 59 48 22 57 85 79 60 62 89 99 96 103 90 91 89 88 89 84 78 81 100 94 82 80 106 130 116 137 143 149 145 137 134 131 128 125 122 117 112 106 97 87 76 62 50 41 32 24 17 10
10 38 80 64 82 67 67 91 89 77 70 66 75 106 119 132 113 76 61 63 58 71 79 82 84 76 39 41 101 124 137 144 144 144 146 143 137 132 129 126 121 114 106 96 83 70 56 42 31 23 15 11 6 2
27 49 53 88 115 71 94 80 83 75 69 78 68 85 106 108 104 99 31 38 309 247 192 158 140 118 104 118 121 134 148 145 142 145 145 143 140 136 130 125 118 111 99 84 65 48 35 24 16 8 3 1 359 356
52 46 65 88 89 78 40 93 72 67 59 66 57 74 82 100 119 71 36 30 58 120 142 151 151 147 134 130 133 132 131 136 139 144 145 143 143 138 134 129 118 103 78 54 37 25 16 9 2 357 354 353 352 351
Height
1492 1492 1492 1492 1493 1493 1494 1494 1494 1494 1494 1493 1493 1492 1491 1491 1491 1491 1489 1491 1490 1483 1457 1469 1468 1464 1463 1462 1462 1464 1470 1467 1475 1473 1467 1452 1445 1443 1443 1437 1451 1455 1460 1465 1462 1465 1457 1431 1437 1436 1429 1426 1425 1423
1486 1487 1487 1487 1487 1487 1488 1488 1488 1488 1488 1488 1487 1487 1486 1485 1485 1486 1483 1483 1481 1475 1451 1454 1452 1447 1451 1453 1456 1456 1453 1460 1459 1457 1448 1442 1439 1437 1435 1433 1440 1443 1433 1438 1439 1435 1428 1429 1431 1431 1430 1428 1424 1422
1480 1480 1480 1480 1480 1481 1481 1481 1481 1481 1481 1481 1480 1480 1479 1479 1479 1479 1474 1474 1472 1464 1443 1435 1426 1425 1431 1439 1444 1449 1447 1448 1450 1449 1436 1431 1435 1435 1431 1428 1430 1434 1433 1433 1434 1420 1426 1426 1429 1429 1428 1426 1423 1421
1473 1474 1473 1472 1474 1474 1474 1475 1475 1474 1475 1475 1474 1473 1471 1471 1471 1469 1466 1466 1465 1459 1442 1422 1417 1417 1422 1427 1432 1437 1441 1442 1446 1447 1440 1429 1430 1430 1421 1424 1423 1427 1431 1428 1427 1422 1424 1424 1425 1426 1425 1424 1422 1420
1466 1465 1465 1465 1466 1467 1467 1467 1468 1468 1468 1467 1466 1465 1462 1461 1461 1460 1454 1447 1448 1452 1431 1419 1415 1414 1416 1421 1426 1430 1432 1434 1437 1440 1435 1426 1427 1428 1429 1430 1423 1423 1421 1422 1416 1416 1419 1422 1424 1424 1422 1421 1421 1419
1458 1458 1459 1458 1458 1458 1459 1459 1460 1460 1460 1459 1457 1456 1454 1454 1454 1452 1441 1433 1429 1428 1432 1420 1410 1408 1409 1413 1418 1422 1426 1428 1431 1432 1427 1424 1423 1424 1422 1417 1412 1414 1415 1416 1416 1418 1419 1420 1421 1421 1421 1420 1419 1418
1451 1451 1450 1450 1450 1450 1451 1451 1452 1452 1452 1451 1449 1447 1446 1445 1446 1446 1436 1428 1428 1431 1426 1410 1402 1404 1406 1409 1413 1419 1421 1423 1427 1424 1421 1419 1422 1421 1420 1415 1410 1411 1413 1414 1416 1417 1418 1418 1420 1420 1419 1419 1418 1417
1445 1444 1444 1443 1443 1442 1442 1443 1443 1444 1444 1443 1441 1438 1436 1433 1431 1423 1418 1418 1421 1426 1421 1402 1400 1404 1404 1405 1410 1413 1416 1420 1419 1417 1417 1417 1421 1420 1415 1408 1408 1409 1411 1412 1413 1414 1415 1416 1417 1418 1418 1417 1416 1416
1438 1437 1436 1434 1433 1433 1434 1434 1436 1436 1436 1435 1434 1431 1426 1420 1416 1411 1411 1411 1410 1411 1401 1394 1394 1395 1401 1403 1405 1409 1412 1415 1416 1413 1414 1417 1411 1411 1404 1403 1404 1407 1409 1410 1411 1411 1412 1413 1414 1414 1414 1414 1414 1414
1432 1430 1428 1424 1421 1419 1422 1425 1426 1428 1429 1429 1429 1427 1418 1411 1408 1407 1399 1399 1397 1394 1394 1385 1385 1389 1396 1396 1401 1406 1407 1408 1411 1411 1413 1412 1401 1401 1401 1402 1403 1404 1406 1407 1409 1409 1409 1409 1411 1411 1411 1411 1411 1411
1427 1425 1422 1418 1415 1413 1412 1415 1419 1421 1423 1423 1421 1417 1411 1408 1406 1400 1394 1388 1383 1381 1379 1380 1380 1384 1391 1393 1398 1400 1402 1404 1404 1405 1408 1406 1399 1393 1395 1398 1398 1401 1403 1404 1405 1405 1405 1406 1406 1406 1407 1408 1408 1408
1422 1420 1417 1413 1410 1408 1408 1409 1413 1416 1416 1417 1416 1412 1407 1403 1398 1394 1381 1375 1370 1365 1371 1373 1379 1383 1388 1392 1395 1400 1398 1403 1396 1407 1406 1400 1388 1391 1393 1394 1395 1397 1399 1400 1400 1401 1401 1402 1402 1402 1402 1403 1404 1405
1417 1415 1411 1408 1404 1401 1401 1403 1406 1410 1412 1413 1412 1407 1400 1394 1388 1380 1370 1362 1361 1364 1366 1369 1374 1380 1386 1390 1393 1395 1396 1397 1403 1404 1398 1386 1387 1390 1391 1392 1394 1395 1396 1397 1397 1397 1399 1399 1399 1400 1399 1400 1401 1402
1413 1410 1406 1404 1401 1399 1398 1400 1403 1407 1410 1410 1406 1392 1387 1378 1373 1371 1371 1369 1365 1363 1363 1366 1371 1375 1381 1384 1388 1387 1397 1401 1399 1394 1386 1382 1387 1388 1389 1391 1393 1393 1394 1395 1396 1397 1397 1397 1397 1398 1398 1399 1399 1400
1408 1406 1403 1402 1400 1399 1399 1400 1402 1404 1406 1406 1397 1384 1377 1374 1373 1371 1369 1367 1364 1362 1364 1367 1370 1373 1375 1380 1383 1391 1395 1387 1382 1374 1377 1383 1386 1388 1390 1391 1392 1394 1395 1395 1396 1396 1397 1397 1397 1397 1397 1398 1399 1400
1403 1402 1401 1400 1399 1399 1399 1400 1401 1403 1403 1401 1390 1381 1377 1375 1370 1370 1368 1364 1362 1362 1364 1365 1366 1366 1368 1370 1375 1374 1378 1373 1372 1379 1383 1385 1387 1389 1391 1392 1394 1394 1395 1396 1397 1397 1398 1397 1398 1398 1398 1399 1400 1401
1398 1398 1399 1399 1398 1397 1397 1398 1399 1399 1397 1390 1383 1381 1380 1378 1373 1371 1369 1365 1362 1362 1360 1362 1360 1360 1368 1365 1368 1371 1370 1376 1379 1383 1385 1388 1390 1392 1394 1395 1395 1396 1396 1397 1398 1399 1399 1400 1400 1401 1401 1401 1402 1403
1392 1395 1396 1396 1396 1395 1395 1395 1395 1392 1389 1386 1384 1380 1379 1377 1374 1371 1368 1365 1364 1361 1361 1359 1361 1362 1360 1362 1367 1375 1378 1381 1385 1385 1388 1392 1394 1396 1396 1397 1398 1399 1400 1401 1402 1402 1402 1403 1403 1404 1405 1405 1406 1407
1392 1393 1393 1394 1394 1394 1393 1392 1392 1388 1385 1384 1382 1380 1378 1375 1373 1371 1367 1363 1362 1362 1361 1363 1364 1364 1367 1369 1370 1374 1379 1384 1386 1389 1394 1397 1399 1399 1400 1401 1402 1404 1405 1405 1406 1406 1407 1407 1408 1408 1409 1409 1409 1410
1391 1391 1392 1392 1391 1391 1390 1389 1388 1386 1383 1383 1381 1379 1377 1376 1374 1370 1366 1363 1363 1363 1368 1372 1374 1374 1373 1372 1374 1376 1381 1385 1386 1392 1398 1400 1401 1403 1404 1404 1406 1407 1408 1409 1409 1410 1411 1412 1413 1413 1413 1413 1414 1414
1390 1390 1390 1390 1389 1389 1388 1387 1387 1385 1382 1381 1380 1377 1377 1375 1372 1370 1369 1368 1368 1372 1378 1380 1377 1376 1374 1376 1380 1382 1385 1388 1393 1397 1397 1400 1404 1406 1406 1407 1409 1410 1411 1412 1413 1414 1415 1415 1416 1416 1416 1416 1417 1417
1389 1389 1388 1388 1387 1387 1387 1386 1386 1384 1384 1382 1379 1378 1378 1377 1377 1377 1376 1375 1380 1384 1384 1383 1381 1380 1380 1383 1387 1389 1392 1394 1397 1398 1400 1403 1406 1408 1410 1410 1411 1412 1414 1415 1416 1416 1417 1418 1419 1419 1420 1420 1420 1421
1388 1388 1387 1386 1387 1387 1388 1385 1385 1384 1383 1383 1381 1380 1382 1382 1382 1380 1383 1389 1390 1391 1391 1388 1387 1389 1389 1392 1393 1396 1397 1399 1400 1402 1403 1406 1408 1411 1412 1412 1414 1415 1416 1417 1418 1419 1419 1420 1421 1422 1422 1423 1424 1424
1387 1387 1386 1386 1387 1389 1388 1387 1386 1386 1385 1385 1384 1385 1387 1386 1384 1387 1394 1398 1399 1397 1396 1395 1395 1395 1397 1399 1400 1401 1402 1403 1404 1405 1407 1410 1411 1413 1414 1414 1415 1417 1418 1419 1420 1421 1422 1423 1424 1425 1426 1426 1427 1428
1388 1391 1390 1389 1389 1389 1389 1389 1389 1387 1389 1390 1387 1390 1392 1391 1391 1397 1401 1405 1403 1401 1400 1399 1399 1400 1401 1403 1405 1406 1406 1406 1407 1408 1410 1411 1412 1413 1415 1415 1416 1418 1420 1422 1422 1424 1425 1427 1427 1430 1432 1431 1431 1432
1392 1394 1394 1393 1393 1392 1393 1393 1394 1394 1392 1391 1394 1394 1394 1393 1397 1404 1408 1410 1408 1406 1404 1403 1403 1405 1406 1408 1409 1409 1410 1410 1410 1411 1412 1412 1414 1416 1416 1418 1420 1421 1423 1425 1426 1427 1429 1432 1430 1434 1435 1435 1434 1434
1395 1396 1396 1396 1396 1395 1396 1396 1396 1396 1396 1397 1397 1395 1394 1398 1405 1411 1411 1410 1409 1407 1407 1407 1408 1409 1411 1412 1412 1412 1411 1412 1412 1413 1414 1415 1416 1417 1419 1422 1423 1425 1427 1429 1431 1431 1433 1435 1435 1436 1437 1436 1435 1435
1397 1397 1397 1397 1396 1397 1398 1399 1400 1402 1402 1402 1401 1403 1403 1406 1410 1412 1411 1411 1410 1409 1409 1410 1411 1412 1412 1412 1412 1412 1412 1413 1414 1415 1417 1419 1420 1422 1424 1426 1428 1430 1432 1434 1435 1436 1438 1439 1439 1439 1438 1437 1437 1436
1399 1398 1398 1398 1398 1399 1402 1403 1404 1405 1405 1404 1403 1406 1410 1411 1412 1413 1413 1413 1414 1414 1414 1414 1414 1415 1415 1415 1415 1415 1415 1416 1418 1420 1421 1423 1425 1429 1430 1432 1434 1435 1436 1438 1439 1441 1441 1442 1442 1440 1440 1440 1439 1436
1402 1400 1401 1401 1402 1404 1406 1406 1407 1407 1407 1406 1406 1409 1411 1414 1415 1415 1415 1416 1416 1417 1417 1417 1417 1417 1417 1417 1417 1417 1418 1419 1420 1424 1426 1427 1429 1432 1434 1436 1438 1439 1441 1442 1443 1443 1443 1444 1443 1442 1441 1440 1439 1438
1402 1402 1402 1404 1406 1407 1407 1407 1407 1408 1408 1409 1409 1410 1413 1415 1416 1416 1416 1416 1417 1417 1417 1418 1418 1417 1417 1417 1417 1417 1419 1421 1423 1426 1429 1432 1434 1436 1438 1441 1442 1443 1444 1445 1445 1445 1445 1444 1444 1443 1443 1441 1440 1438
1402 1402 1404 1406 1409 1409 1408 1409 1409 1410 1410 1411 1412 1414 1416 1416 1417 1418 1418 1418 1418 1418 1418 1418 1418 1419 1419 1419 1419 1420 1421 1424 1427 1430 1433 1435 1439 1441 1442 1445 1446 1447 1447 1446 1446 1446 1445 1445 1444 1444 1443 1442 1439 1436
1405 1405 1405 1406 1407 1408 1410 1410 1410 1411 1412 1413 1414 1414 1415 1416 1417 1418 1418 1417 1417 1417 1418 1418 1420 1421 1421 1422 1423 1424 1426 1429 1432 1435 1437 1439 1442 1443 1444 1447 1448 1449 1449 1448 1447 1446 1446 1445 1444 1443 1442 1440 1437 1435